Weather in Maly Khomutets

Russia / Lipetsk Oblast     52°47′33″N   39°44′52″E
temp.,
°C
wind,
m/s
gust,
m/s
humid.,
%
clouds,
%
prec.,
mm/h
press.,
hPa
HPBL,
m
8 august, mon
mon800:00+21e2242100 0.0 101811
03:00+22ese1141100 0.0 101812
06:00+21nne1148100 0.0 101913
09:00+24ne114375 0.0 1019137
12:00+29se122999 0.0 1019582
15:00+32se122111 0.0 10183375
18:00+28ese2230100 0.0 101832
21:00+26e11325 0.0 101811
9 august, tue
tue900:00+22sse23415 0.0 101926
03:00+20sse224535 0.0 101822
06:00+20sse114899 0.0 101918
09:00+25nne1139100 0.0 1019297
12:00+30e222993 0.0 10181032
15:00+32ese232665 0.0 10172717
18:00+27nnw3543100 0.0 1017111
21:00+22n6126396 0.0 1018338
10 august, wed
wed1000:00+19nne4117219 0.0 1018295
03:00+18ne31182100 0.0 1018288
06:00+19ne31081100 0.0 1019318
09:00+22n4565100 0.0 1019547
12:00+26ne455480 0.0 1019813
15:00+26nne5552100 0.0 10191160
18:00+25nne6755100 0.0 1019832
21:00+20n51173100 0.0 1020354
11 august, thu
thu1100:00+18nne51182100 0.0 1020352
03:00+17ne5118696 0.0 1021368
06:00+17ne51280100 0.1 1022434
09:00+22ene695697 0.1 1022735
12:00+26ene5639100 0.1 10221197
15:00+28ne553426 0.1 10211494
18:00+26ne55392 0.0 10211031
21:00+20ne49520 0.0 1022188
12 august, fri
fri1200:00+18ne37520 0.0 1023136
03:00+16ne34610 0.0 102475
06:00+16ne34660 0.0 102496
09:00+23ene34470 0.0 1024529
12:00+27ene333548 0.0 10241415
15:00+29nne33319 0.0 10221873
18:00+27nne44355 0.0 1022676
21:00+20nne34470 0.0 102368